{"data":{"norad_id":51808,"intl_designator":"2022-017AS","name":"STARLINK-3609","alt_names":[],"object_type":"PAYLOAD","status":"ACTIVE","operator":null,"country":"US","launch_date":"2022-02-25","launch_site_code":"AFWTR","launch_vehicle":null,"mission":null,"orbit_class":"UNKNOWN","rcs_meters":null,"size_class":null,"mass_kg":null,"dimensions":null,"purposes":["comms"],"wikipedia_slug":null,"has_3d_model":false,"image_url":null,"decayed_at":null,"tle_current":{"epoch":"2026-05-24T23:59:01.686048Z","epoch_age_seconds":79114,"freshness":"FRESH","line1":"1 51808U 22017AS  26144.99932507  .00000100  00000+0  24364-4 0  9998","line2":"2 51808  53.2161 356.5525 0001385  94.7311 265.3839 15.08841580235483","mean_motion":15.0884158,"eccentricity":0.0001385,"inclination_deg":53.2161,"raan_deg":356.5525,"arg_perigee_deg":94.7311,"mean_anomaly_deg":265.3839,"bstar":2.4364e-5,"rev_number":23548,"period_min":95.437454739284,"perigee_km":538.78043377541,"apogee_km":540.6966853054,"semimajor_km":6917.8755595404,"source":"CELESTRAK","updated_at":"2026-05-25T13:38:16.957479Z"}}}